Wind_Speed
38 37 36 35 35 35 34 33 32 32 32 32 31 30 29 28 28 28 27 27 27 26 26 26 26 25 25 25 25 25 25 25 25 24 24 24 25 25 25 25 25 25 25
38 38 37 37 36 35 35 35 34 33 34 33 33 32 31 30 29 29 29 28 28 28 28 28 28 27 27 27 27 27 27 27 27 27 27 27 27 27 27 27 27 27 27
38 37 38 38 38 37 36 35 34 33 32 33 33 34 33 32 31 30 30 30 29 29 30 30 30 30 30 30 30 29 29 29 30 30 29 29 29 29 29 29 28 28 29
37 38 38 39 39 39 37 36 36 35 35 34 33 33 34 34 32 31 31 32 31 31 31 32 32 32 32 32 31 31 31 31 31 31 31 31 31 31 31 31 30 30 30
36 36 38 39 38 39 38 37 36 36 36 35 35 34 34 34 33 33 32 33 33 33 33 33 33 33 33 33 33 33 33 33 32 32 33 33 33 33 33 33 33 33 32
37 37 37 37 38 38 38 38 37 36 36 36 36 35 35 34 34 34 33 33 33 33 33 33 33 34 34 34 34 34 34 34 34 34 34 35 35 35 35 36 35 35 35
37 36 36 35 36 37 37 37 38 37 36 36 36 36 35 34 34 34 34 35 34 34 34 34 34 34 34 35 35 35 35 36 36 36 36 37 37 38 38 38 37 37 37
36 36 36 35 35 36 36 36 37 37 37 37 36 36 36 36 35 36 36 36 37 36 36 36 37 36 36 36 37 38 38 39 39 38 38 39 40 40 40 39 39 39 39
36 35 36 36 37 36 36 35 34 35 36 36 36 36 36 37 37 37 38 38 37 37 37 37 38 38 38 39 40 40 40 41 41 41 40 41 41 41 41 41 41 41 42
37 36 36 36 37 37 38 37 36 35 35 35 36 37 37 37 38 37 38 38 39 39 38 39 40 40 40 41 42 42 42 42 43 43 43 42 43 43 44 43 43 44 45
38 38 37 37 37 36 37 38 38 37 36 36 36 37 37 38 38 38 38 39 40 40 41 41 42 42 42 43 43 44 44 44 44 45 46 45 45 45 45 45 46 46 47
36 36 37 37 37 36 37 37 37 37 36 36 37 37 38 38 38 39 40 40 41 41 42 42 43 44 44 45 45 45 46 46 47 47 48 48 47 47 47 47 48 49 49
35 36 37 37 38 37 38 38 37 37 37 37 38 38 39 40 41 42 42 42 43 43 43 43 44 45 45 46 47 47 48 48 49 49 49 49 49 49 49 50 50 51 52
35 36 38 39 39 38 39 38 37 37 38 38 38 40 41 42 43 43 44 44 45 44 44 45 45 46 47 48 48 48 49 49 49 50 50 50 51 51 51 51 52 53 54
33 35 37 38 38 38 38 39 39 39 39 39 39 40 42 43 44 44 45 45 46 46 46 46 46 47 49 50 50 50 50 50 50 51 52 52 52 53 54 54 54 55 55
32 33 35 37 38 38 38 40 41 40 41 40 41 42 43 44 45 46 46 47 47 47 48 47 47 48 49 50 51 51 51 51 52 52 53 54 54 55 55 56 56 56 56
33 34 35 37 38 40 40 40 41 41 42 42 42 43 45 45 46 46 46 47 47 48 49 49 49 49 50 50 51 52 52 52 52 53 54 55 56 57 57 57 58 58 58
32 34 35 37 39 39 40 40 41 42 43 43 43 44 45 46 47 47 47 48 48 49 50 50 50 51 51 51 51 52 53 53 53 54 55 56 56 57 57 58 58 58 58
32 33 35 37 38 39 40 41 41 42 44 45 45 46 46 47 47 47 48 49 49 49 50 51 51 51 51 51 51 52 53 53 54 55 55 56 56 56 57 57 58 57 58
30 32 34 36 38 39 40 41 41 42 44 45 46 46 46 47 47 47 48 49 50 50 51 52 52 51 52 51 52 53 53 53 54 54 55 55 56 57 57 57 58 57 57
30 32 33 35 37 38 40 40 42 43 44 45 45 46 46 47 47 48 48 49 50 51 52 52 52 52 52 52 53 53 52 53 53 54 54 55 56 57 58 58 58 58 58
29 31 32 34 36 37 39 40 42 43 44 44 45 45 46 46 47 48 49 49 50 51 52 52 53 53 53 53 54 54 53 53 53 53 54 55 57 57 58 58 58 58 58
30 32 33 33 35 36 38 40 41 42 42 43 44 45 46 47 47 47 48 49 49 50 51 51 51 51 52 53 53 54 54 54 53 53 54 54 55 56 57 58 58 57 56
31 31 32 33 34 36 38 39 39 40 41 42 43 44 45 46 46 47 48 48 49 49 50 50 50 50 50 51 51 52 52 52 52 52 53 52 53 54 55 56 56 55 54
31 32 33 34 35 36 37 38 38 40 41 41 43 44 44 44 45 46 47 48 48 48 49 49 49 50 50 50 50 50 51 51 51 52 53 52 52 52 52 53 53 53 52
33 34 35 36 36 37 38 38 39 40 41 42 43 43 44 44 45 46 47 47 48 48 49 49 49 49 49 49 49 50 51 51 52 52 52 52 51 51 50 50 50 51 50
Wind_Direction
242 242 242 242 243 243 244 245 247 248 249 250 249 250 252 253 253 255 256 256 258 260 261 262 263 264 266 268 271 273 275 276 278 281 282 284 285 286 287 287 287 288 288
241 242 240 242 242 243 244 246 247 249 249 249 250 251 252 253 254 255 256 256 258 259 261 263 264 265 266 268 270 271 273 276 278 279 281 282 284 285 286 286 286 287 288
241 242 243 242 243 243 244 245 245 248 249 251 252 252 253 254 254 255 255 255 257 260 262 264 264 265 266 267 269 270 272 275 276 277 279 281 282 283 285 285 285 285 286
241 242 243 242 243 243 244 245 246 247 249 251 253 254 254 254 255 255 256 256 257 260 263 265 265 266 267 268 269 271 272 274 276 277 277 279 280 282 282 283 284 284 285
242 242 242 241 242 243 244 245 247 247 249 250 252 253 253 254 255 256 256 256 258 259 261 264 266 267 267 268 269 270 272 273 275 277 278 278 280 282 282 282 282 282 283
242 242 243 241 241 243 244 245 246 246 249 250 251 252 252 253 254 255 256 257 258 259 261 263 265 266 267 268 268 270 271 273 275 276 277 278 279 281 281 281 281 281 282
242 242 243 242 241 242 243 245 245 246 249 250 252 253 252 253 254 255 255 256 258 260 262 263 264 266 268 268 268 270 271 273 275 276 277 278 279 280 281 281 280 281 281
239 240 240 242 243 243 243 245 247 248 250 251 253 253 252 254 256 258 257 258 259 261 263 264 266 268 269 269 270 271 272 273 274 276 277 278 280 280 280 281 280 280 280
240 241 241 242 242 244 244 245 248 249 249 251 253 254 255 255 258 260 260 260 261 262 263 265 267 268 269 270 271 272 273 273 273 275 276 277 278 279 280 280 279 279 280
242 242 241 242 244 245 244 245 248 250 250 252 253 255 256 257 259 261 262 263 263 264 265 266 267 268 269 270 271 272 273 274 274 274 276 277 278 279 279 279 279 280 280
243 244 242 243 244 243 244 246 248 251 253 254 256 258 259 259 261 263 264 264 265 265 267 267 267 268 269 270 272 272 273 274 275 275 275 276 278 278 278 278 278 279 279
244 243 243 243 244 244 246 247 249 252 254 256 258 259 261 262 263 265 265 265 265 266 267 268 267 269 270 271 272 273 274 275 276 276 276 275 277 278 277 277 277 278 279
244 245 245 243 245 246 247 249 250 253 255 256 258 260 262 263 264 265 267 267 266 266 267 269 269 270 271 272 273 275 276 276 277 277 277 277 276 277 277 277 277 278 279
246 247 246 245 246 247 248 249 251 254 256 257 259 260 262 263 264 265 267 267 267 266 267 269 269 269 270 272 273 275 275 276 276 277 278 278 278 278 278 278 278 279 280
249 250 248 248 249 250 250 250 252 254 256 258 260 262 263 264 264 265 267 267 266 267 267 268 270 271 271 272 273 274 275 275 275 276 277 278 279 278 278 278 279 279 280
250 252 251 253 253 252 252 254 255 256 257 259 262 264 265 265 265 266 268 267 267 268 268 269 271 272 272 273 274 274 275 276 275 276 277 278 279 279 279 279 279 279 280
252 253 252 253 253 255 255 256 257 259 260 262 265 267 268 268 269 269 269 268 269 269 270 270 272 273 273 274 275 275 276 276 276 277 277 278 279 279 280 280 280 280 280
256 253 254 254 255 257 258 260 262 262 263 265 267 269 270 271 271 270 270 270 270 270 270 272 273 273 273 274 275 276 276 277 277 277 278 279 279 279 280 280 281 281 281
261 259 259 258 258 260 261 263 264 265 265 266 268 270 271 271 271 272 271 270 270 271 272 273 275 275 275 276 276 277 277 277 277 277 278 279 279 279 279 280 281 282 282
265 263 263 262 263 264 264 264 266 267 268 269 270 271 272 273 273 273 273 272 271 271 273 275 276 276 276 277 277 277 278 278 277 278 278 279 279 279 280 281 281 282 282
267 265 264 264 264 265 267 267 268 269 270 270 271 271 273 274 274 273 273 273 273 273 274 277 277 277 277 277 278 277 278 278 279 279 279 279 280 280 281 281 281 281 281
271 270 269 268 267 267 270 269 269 270 270 271 272 273 274 274 274 274 274 274 274 275 276 277 278 278 277 277 277 277 277 279 280 280 281 282 281 281 281 281 281 281 281
276 274 271 271 271 271 271 271 271 271 272 273 274 275 275 275 275 275 275 276 277 277 277 278 279 279 279 278 277 278 279 280 281 281 282 282 282 281 281 281 281 281 281
278 277 276 276 276 275 275 274 274 275 275 277 277 277 277 276 276 275 275 276 277 277 278 279 280 280 280 279 279 280 281 281 282 283 283 283 283 283 283 282 282 281 282
282 281 279 279 277 278 278 277 277 277 277 278 278 278 278 277 277 276 276 277 278 278 279 280 280 280 280 281 281 282 282 283 283 283 283 283 284 284 284 283 282 283 283
283 283 281 281 280 280 281 280 279 279 279 279 279 280 279 278 278 278 278 278 279 279 280 280 280 280 280 281 282 283 283 284 285 285 284 283 283 284 284 283 282 283 284
Height
5774 5778 5781 5784 5787 5790 5793 5795 5797 5799 5802 5804 5806 5808 5810 5812 5813 5814 5815 5816 5818 5819 5820 5820 5821 5822 5823 5824 5824 5824 5825 5825 5825 5824 5824 5824 5823 5823 5822 5822 5821 5820 5820
5766 5769 5773 5776 5779 5782 5785 5788 5790 5792 5794 5796 5799 5801 5803 5805 5806 5807 5809 5810 5811 5813 5814 5815 5815 5816 5817 5818 5818 5819 5819 5819 5819 5819 5819 5818 5818 5817 5816 5816 5815 5814 5814
5757 5761 5765 5768 5771 5774 5777 5779 5782 5784 5786 5789 5791 5793 5796 5797 5799 5801 5802 5803 5805 5806 5807 5808 5809 5810 5810 5811 5812 5812 5812 5812 5812 5812 5812 5812 5811 5811 5810 5809 5809 5808 5807
5749 5752 5756 5759 5762 5765 5768 5771 5774 5776 5779 5781 5783 5786 5788 5790 5792 5793 5795 5797 5798 5799 5800 5801 5802 5803 5803 5804 5804 5805 5805 5805 5805 5805 5805 5805 5804 5804 5803 5802 5802 5801 5800
5740 5743 5747 5750 5752 5756 5759 5762 5765 5768 5770 5773 5776 5778 5780 5782 5784 5786 5788 5789 5790 5792 5793 5794 5794 5795 5796 5797 5797 5797 5798 5798 5798 5798 5797 5797 5797 5796 5796 5795 5794 5794 5793
5731 5734 5737 5741 5744 5747 5750 5753 5756 5759 5762 5765 5768 5770 5772 5774 5776 5778 5780 5781 5783 5784 5785 5786 5787 5787 5788 5788 5789 5789 5790 5790 5790 5790 5789 5789 5789 5788 5787 5786 5786 5785 5784
5722 5725 5729 5732 5735 5739 5742 5745 5748 5751 5754 5757 5759 5762 5764 5766 5768 5770 5772 5773 5775 5776 5777 5778 5778 5779 5779 5780 5780 5781 5781 5781 5781 5781 5781 5780 5780 5779 5778 5777 5777 5776 5775
5714 5717 5721 5724 5727 5731 5734 5737 5740 5743 5746 5749 5751 5753 5756 5758 5760 5762 5763 5765 5766 5767 5768 5769 5770 5770 5771 5771 5772 5772 5772 5772 5772 5772 5771 5771 5770 5769 5769 5768 5767 5766 5766
5705 5709 5713 5716 5719 5723 5726 5730 5733 5735 5738 5740 5743 5745 5747 5750 5752 5753 5754 5756 5757 5758 5760 5760 5760 5761 5761 5762 5762 5762 5762 5762 5762 5761 5761 5760 5760 5759 5758 5758 5757 5756 5755
5697 5701 5705 5708 5712 5715 5718 5722 5725 5728 5730 5732 5734 5736 5738 5741 5743 5745 5746 5747 5748 5749 5750 5751 5751 5751 5751 5752 5752 5752 5752 5751 5751 5750 5750 5749 5749 5748 5747 5747 5746 5745 5744
5690 5693 5697 5700 5704 5707 5710 5713 5716 5719 5721 5723 5726 5727 5729 5731 5733 5735 5736 5737 5738 5739 5739 5740 5741 5741 5741 5741 5741 5741 5740 5740 5740 5739 5738 5738 5737 5736 5736 5735 5734 5733 5732
5682 5685 5689 5693 5696 5699 5702 5705 5708 5710 5712 5714 5716 5718 5720 5721 5723 5724 5725 5727 5728 5729 5729 5729 5729 5730 5730 5730 5729 5729 5729 5728 5727 5727 5726 5725 5725 5724 5723 5722 5721 5720 5719
5675 5678 5681 5685 5688 5691 5694 5697 5699 5701 5703 5705 5707 5709 5710 5711 5712 5713 5714 5715 5716 5717 5718 5718 5718 5718 5717 5717 5717 5717 5716 5716 5715 5714 5713 5712 5711 5710 5710 5709 5707 5706 5705
5668 5671 5674 5677 5679 5682 5685 5688 5690 5692 5694 5696 5697 5698 5699 5700 5701 5701 5702 5703 5704 5705 5706 5706 5706 5705 5705 5705 5704 5704 5703 5703 5702 5701 5700 5699 5698 5697 5696 5695 5694 5692 5691
5661 5664 5667 5669 5671 5674 5677 5679 5681 5683 5684 5686 5687 5688 5688 5689 5689 5689 5690 5690 5691 5692 5694 5694 5693 5693 5692 5692 5691 5691 5690 5689 5688 5687 5686 5685 5683 5682 5681 5680 5679 5677 5676
5653 5656 5659 5661 5663 5666 5668 5670 5671 5673 5674 5675 5676 5677 5677 5677 5677 5677 5677 5677 5678 5679 5680 5681 5681 5680 5679 5679 5678 5677 5676 5675 5674 5673 5672 5670 5669 5667 5666 5664 5663 5662 5660
5645 5648 5650 5653 5655 5656 5658 5660 5662 5663 5664 5665 5665 5666 5666 5665 5665 5665 5665 5665 5665 5665 5666 5668 5667 5666 5665 5665 5664 5663 5662 5661 5659 5658 5656 5655 5653 5652 5650 5649 5647 5645 5644
5638 5639 5641 5643 5645 5647 5648 5650 5651 5652 5653 5654 5654 5654 5654 5654 5653 5653 5652 5652 5652 5652 5652 5653 5653 5651 5651 5650 5649 5648 5647 5646 5644 5643 5641 5640 5638 5636 5634 5632 5631 5628 5627
5630 5631 5633 5634 5635 5637 5638 5639 5640 5641 5642 5642 5642 5642 5642 5641 5641 5640 5639 5639 5639 5638 5637 5637 5638 5637 5636 5634 5634 5633 5632 5630 5628 5627 5625 5623 5622 5619 5617 5616 5614 5612 5610
5622 5623 5624 5625 5626 5627 5628 5629 5629 5630 5630 5630 5629 5629 5629 5628 5627 5626 5626 5626 5625 5624 5623 5623 5623 5622 5621 5619 5618 5618 5617 5615 5613 5611 5609 5607 5605 5603 5601 5599 5598 5595 5594
5613 5614 5615 5615 5616 5616 5617 5617 5617 5617 5617 5617 5617 5616 5615 5614 5613 5613 5612 5612 5611 5610 5610 5609 5608 5607 5606 5605 5604 5602 5601 5600 5598 5596 5594 5592 5590 5588 5585 5583 5581 5579 5577
5605 5605 5606 5606 5606 5606 5606 5606 5605 5605 5605 5604 5604 5603 5602 5601 5600 5599 5598 5597 5597 5596 5595 5594 5593 5592 5591 5589 5588 5586 5585 5584 5584 5582 5579 5577 5573 5571 5568 5566 5564 5562 5560
5598 5598 5597 5597 5596 5596 5595 5595 5594 5593 5593 5592 5591 5590 5589 5588 5587 5586 5585 5584 5583 5581 5581 5580 5579 5577 5575 5574 5572 5571 5569 5568 5567 5565 5562 5561 5558 5555 5552 5549 5547 5545 5543
5590 5589 5588 5587 5586 5585 5584 5583 5582 5582 5581 5580 5579 5577 5576 5575 5573 5572 5572 5571 5570 5568 5566 5565 5564 5562 5560 5558 5557 5555 5554 5553 5552 5549 5546 5545 5542 5539 5536 5533 5530 5528 5526
5581 5580 5579 5578 5577 5575 5573 5572 5571 5570 5570 5568 5567 5565 5563 5562 5561 5559 5558 5558 5557 5555 5552 5550 5549 5547 5546 5544 5542 5540 5539 5538 5537 5535 5531 5529 5527 5524 5521 5518 5514 5513 5511
5572 5571 5569 5568 5566 5564 5562 5561 5559 5558 5557 5556 5555 5552 5550 5549 5547 5545 5544 5543 5542 5541 5539 5537 5535 5533 5531 5529 5527 5526 5524 5522 5521 5520 5517 5514 5512 5509 5508 5505 5501 5498 5496